[[{"header":{"parameterUnit":"m.s-1","parameterCategory":1,"la1":30.2991,"la2":30.254,"lo1":-89.0895,"lo2":-89.0444,"dy":0.0017,"dx":0.0017,"nx":28,"ny":28,"refTime":"2023-08-14T03:00:00:Z","depth":0,"parameterNumber":2,"parameterNumberName":"U-component_of_WINDS"},"data":[0,0,0,0,0,0,0,0,0,0,0,0,0,0,0,0,0,0,0,0,0,0,0,0,0,0,0,0,0,0,0,0,0,0,0,0,0,0,0,0,0,0,0,0,0,0,0,0,0,0,0,0,0,0,0,0,0,0,1.315,1.3151,0,1.3272,1.3273,1.3275,1.3311,1.331,1.3309,1.3309,1.3437,1.3441,1.3444,0,0,0,0,0,0,0,0,0,0,0,0,0,1.295,1.2953,1.315,1.3151,1.3153,1.3272,1.3273,1.3275,1.3311,1.331,1.3309,1.3308,1.3435,1.344,1.3445,0,0,0,0,0,0,0,0,0,0,0,0,0,1.3051,1.2954,1.315,1.3185,1.3189,1.3271,1.3274,1.3276,1.3311,1.331,1.3309,1.3308,1.3434,1.344,1.3446,1.3502,0,0,1.3464,1.3466,0,0,0,0,0,0,0,0,1.3045,1.3058,1.3178,1.3183,1.3188,1.3275,1.325,1.3352,1.3311,1.3265,1.3309,1.3308,1.3384,1.3394,1.3419,1.3508,1.3514,1.3464,1.3468,1.3471,1.3472,0,0,0,0,0,0,0,1.3038,1.3053,1.3198,1.318,1.3186,1.3195,1.3209,1.3269,1.3328,1.3269,1.3272,1.3286,1.3386,1.3413,1.3422,1.3515,1.3464,1.347,1.3473,1.3476,1.3657,1.3658,0,0,0,0,0,0,1.3024,1.3047,1.3194,1.3202,1.3112,1.32,1.3215,1.3248,1.3328,1.3339,1.3286,1.3287,1.3403,1.3415,1.3427,1.3498,1.3471,1.3476,1.348,1.3655,1.3657,1.3658,0,0,0,0,0,0,1.302,1.3037,1.3189,1.3125,1.3145,1.3204,1.3242,1.3251,1.3278,1.3341,1.3352,1.3303,1.3403,1.3418,1.3483,1.3503,1.3479,1.3484,1.3654,1.3656,1.3658,1.3641,0,0,0,0,0,0,1.3014,1.3035,1.3057,1.3125,1.3149,1.3243,1.3243,1.3254,1.3288,1.329,1.3359,1.337,1.3403,1.3474,1.3489,1.3511,1.3489,1.3652,1.3655,1.3657,1.364,1.3642,1.3643,0,0,0,0,0,1.3007,1.3048,1.3058,1.3076,1.3177,1.3244,1.3257,1.3294,1.3289,1.3312,1.3352,1.3368,1.3498,1.348,1.3497,1.3521,1.3651,1.3654,1.3657,1.3639,1.3641,1.3643,0,0,0,0,0,0,1.2982,1.3058,1.307,1.3134,1.3182,1.3249,1.3279,1.3295,1.3346,1.3346,1.3391,1.3406,1.3467,1.3501,1.3479,1.358,1.3575,1.3582,1.3556,1.3559,1.356,1.3551,1.3494,0,0,0,0,0,1.2983,1.3031,1.3095,1.3146,1.3169,1.322,1.325,1.3274,1.3326,1.3347,1.3392,1.3443,1.3495,1.3529,1.3581,1.3645,1.366,1.367,1.3672,1.3673,1.3678,1.3714,1.3719,1.3667,1.3667,1.3667,0,0,1.2988,1.3035,1.3063,1.3142,1.3182,1.323,1.3237,1.3288,1.3324,1.3355,1.3418,1.3453,1.3513,1.3577,1.3607,1.3607,1.3695,1.3676,1.3677,1.3681,1.3717,1.3722,1.3726,1.3669,1.3669,1.3668,0,0,1.3021,1.3061,1.3108,1.3147,1.3208,1.3241,1.3252,1.3317,1.3341,1.3405,1.3429,1.3473,1.3563,1.3604,1.3636,1.3684,1.37,1.37,1.3709,1.3744,1.3748,1.3752,1.3768,1.3774,1.3704,1.3704,1.3704,0,1.3019,1.3092,1.313,1.318,1.3214,1.3243,1.329,1.3327,1.3402,1.3425,1.3423,1.3535,1.3577,1.3651,1.3662,1.3688,1.3702,1.3692,1.3744,1.3748,1.3752,1.3769,1.3775,1.3704,1.3704,1.3704,1.3704,0,1.3087,1.3137,1.3168,1.3237,1.3275,1.3323,1.3369,1.3403,1.3423,1.3457,1.3522,1.3573,1.3635,1.3654,1.3676,1.3732,1.3729,1.3735,1.3731,1.3756,1.3772,1.3779,1.3703,1.3703,1.3703,1.3704,0,0,1.3107,1.3197,1.3207,1.3239,1.3307,1.3347,1.3397,1.3457,1.3485,1.3535,1.3578,1.3652,1.3658,1.3695,1.3721,1.3751,1.3785,1.3754,1.3756,1.3757,1.3849,1.3844,1.3851,1.3796,1.3798,1.3799,1.3844,0,1.3148,1.3237,1.3273,1.3345,1.3393,1.3421,1.3464,1.3511,1.3544,1.3589,1.3625,1.3677,1.3681,1.3703,1.3734,1.3774,1.3804,1.3772,1.3837,1.3839,1.3821,1.3859,1.3854,1.3895,1.3851,1.3852,1.3853,0,1.3208,1.3258,1.3335,1.3397,1.3418,1.3456,1.3514,1.3556,1.361,1.3632,1.3672,1.3697,1.375,1.3743,1.3817,1.3794,1.3823,1.3847,1.3849,1.3857,1.3847,1.3867,1.3909,1.3914,1.3863,1.3862,1.3861,0,1.3215,1.3301,1.3358,1.3385,1.3459,1.3485,1.3517,1.3569,1.3603,1.3654,1.3676,1.3732,1.3763,1.3806,1.3845,1.3836,1.3916,1.3912,1.3936,1.3935,1.3951,1.395,1.3997,1.397,1.397,1.397,1.397,0,1.3257,1.3303,1.3362,1.3397,1.345,1.349,1.3541,1.3575,1.3621,1.3664,1.3692,1.3732,1.3781,1.3826,1.3857,1.3914,1.3928,1.3947,1.3955,1.3945,1.3942,1.3964,1.3962,1.3972,1.3971,1.3971,1.3971,0,1.3273,1.3315,1.3379,1.3443,1.346,1.3496,1.3551,1.3587,1.3621,1.3674,1.3689,1.3742,1.3797,1.384,1.3913,1.3934,1.3993,1.4002,1.3975,1.3979,1.4,1.3997,1.4063,1.4074,1.4039,1.404,1.404,0,1.3297,1.3333,1.3401,1.3431,1.3463,1.3511,1.3545,1.3586,1.3621,1.3684,1.3712,1.3769,1.3817,1.3904,1.3949,1.4005,1.4015,1.4034,1.4023,1.4011,1.4014,1.4012,1.4015,1.4035,1.4035,1.4035,1.4035,0,1.3335,1.3354,1.3401,1.3456,1.3496,1.3542,1.3588,1.3611,1.366,1.3698,1.3754,1.3791,1.3864,1.392,1.398,1.4014,1.4033,1.4038,1.4047,1.4036,1.4019,1.4028,1.3978,1.4037,1.4037,1.4036,1.4036,1.4036,1.3356,1.3389,1.3442,1.3494,1.3533,1.3575,1.3611,1.3649,1.3696,1.3759,1.378,1.3838,1.3891,1.3973,1.4007,1.4053,1.4054,1.4066,1.4069,1.4072,1.407,1.4012,1.4064,1.4064,1.4064,1.4064,1.4064,0,1.3395,1.343,1.3478,1.3541,1.3582,1.3596,1.3647,1.3681,1.3731,1.3778,1.3824,1.3889,1.3943,1.3993,1.4049,1.4077,1.4087,1.409,1.4089,1.4096,1.4067,1.4053,1.4081,1.4081,1.4081,1.4081,1.4081,1.4081,1.342,1.3477,1.3501,1.3577,1.3613,1.3669,1.3697,1.3736,1.3774,1.3844,1.3889,1.3921,1.3969,1.403,1.408,1.4093,1.4113,1.4114,1.4129,1.4101,1.4098,1.4096,1.4084,1.4118,1.4118,1.4155,1.4156,1.4156]},{"header":{"parameterUnit":"m.s-1","parameterCategory":1,"la1":30.2991,"la2":30.254,"lo1":-89.0895,"lo2":-89.0444,"dy":0.0017,"dx":0.0017,"nx":28,"ny":28,"refTime":"2023-08-14T03:00:00:Z","depth":0,"parameterNumber":3,"parameterNumberName":"V-component_of_WINDS"},"data":[0,0,0,0,0,0,0,0,0,0,0,0,0,0,0,0,0,0,0,0,0,0,0,0,0,0,0,0,0,0,0,0,0,0,0,0,0,0,0,0,0,0,0,0,0,0,0,0,0,0,0,0,0,0,0,0,0,0,4.8794,4.8794,0,4.8789,4.8789,4.8788,4.8784,4.8784,4.8784,4.8784,4.8775,4.8775,4.8775,0,0,0,0,0,0,0,0,0,0,0,0,0,4.8797,4.8797,4.8794,4.8794,4.8794,4.8789,4.8789,4.8788,4.8784,4.8784,4.8784,4.8784,4.8776,4.8775,4.8775,0,0,0,0,0,0,0,0,0,0,0,0,0,4.8794,4.8797,4.8794,4.8791,4.8791,4.8789,4.8789,4.8788,4.8784,4.8784,4.8784,4.8783,4.8776,4.8775,4.8775,4.8775,0,0,4.8774,4.8774,0,0,0,0,0,0,0,0,4.8794,4.8794,4.8792,4.8791,4.8791,4.8787,4.8787,4.8784,4.8784,4.8786,4.8784,4.8783,4.8779,4.8779,4.8778,4.8775,4.8774,4.8774,4.8774,4.8774,4.8774,0,0,0,0,0,0,0,4.8795,4.8794,4.8792,4.8792,4.8791,4.8789,4.8788,4.8786,4.8783,4.8786,4.8786,4.8785,4.8779,4.8778,4.8777,4.8774,4.8774,4.8774,4.8774,4.8774,4.8768,4.8768,0,0,0,0,0,0,4.8796,4.8795,4.8792,4.8792,4.8793,4.8789,4.8788,4.8788,4.8783,4.8782,4.8785,4.8785,4.8778,4.8778,4.8777,4.8775,4.8774,4.8774,4.8774,4.8768,4.8768,4.8768,0,0,0,0,0,0,4.8796,4.8796,4.8792,4.8793,4.8792,4.8789,4.8789,4.8788,4.8787,4.8783,4.8782,4.8785,4.8778,4.8777,4.8775,4.8775,4.8774,4.8773,4.8768,4.8768,4.8768,4.8772,0,0,0,0,0,0,4.8796,4.8796,4.8797,4.8793,4.8792,4.8792,4.8789,4.8788,4.8787,4.8787,4.8782,4.8781,4.8778,4.8775,4.8775,4.8774,4.8773,4.8768,4.8768,4.8768,4.8772,4.8772,4.8772,0,0,0,0,0,4.8796,4.8798,4.8797,4.8796,4.8794,4.8792,4.8791,4.8788,4.8787,4.8787,4.8784,4.8781,4.8775,4.8775,4.8775,4.8774,4.8768,4.8768,4.8768,4.8772,4.8772,4.8772,0,0,0,0,0,0,4.8801,4.8798,4.8796,4.8797,4.8795,4.8791,4.8791,4.8789,4.8787,4.8786,4.8782,4.8781,4.8778,4.8776,4.8776,4.8772,4.8771,4.8771,4.8774,4.8774,4.8775,4.8775,4.8773,0,0,0,0,0,4.8802,4.8802,4.8799,4.88,4.8799,4.8795,4.8794,4.8792,4.8789,4.8788,4.8785,4.8781,4.8778,4.8776,4.8773,4.8771,4.8769,4.877,4.8771,4.8771,4.8771,4.8767,4.8767,4.8768,4.8768,4.8768,0,0,4.8805,4.8803,4.8803,4.8801,4.8799,4.8797,4.8794,4.8793,4.8792,4.8787,4.8785,4.8782,4.8778,4.8775,4.8774,4.8773,4.877,4.8771,4.8771,4.8771,4.8767,4.8767,4.8767,4.8768,4.8768,4.8768,0,0,4.8809,4.8808,4.8808,4.8806,4.8803,4.88,4.88,4.8796,4.8794,4.8791,4.8788,4.8785,4.878,4.8777,4.8774,4.8774,4.8771,4.8774,4.8775,4.8772,4.8772,4.8771,4.877,4.877,4.8773,4.8773,4.8773,0,4.8812,4.8811,4.8808,4.8807,4.8805,4.8801,4.88,4.8798,4.8794,4.8792,4.8791,4.8784,4.8781,4.8776,4.8776,4.8775,4.8773,4.8774,4.8772,4.8772,4.8772,4.877,4.877,4.8774,4.8774,4.8774,4.8773,0,4.8814,4.8813,4.8813,4.881,4.8808,4.8807,4.8802,4.8801,4.8798,4.8795,4.8791,4.8787,4.8782,4.8781,4.8778,4.8775,4.8775,4.8773,4.8772,4.8772,4.877,4.877,4.8774,4.8774,4.8774,4.8774,0,0,4.8822,4.8816,4.8816,4.8813,4.8809,4.8807,4.8805,4.8801,4.8798,4.8795,4.8792,4.8787,4.8785,4.8782,4.8779,4.8776,4.8775,4.8775,4.8774,4.8774,4.8769,4.877,4.8769,4.8772,4.8772,4.8772,4.8769,0,4.8825,4.8822,4.8818,4.8816,4.8813,4.8809,4.8806,4.8802,4.8799,4.8795,4.8791,4.8787,4.8785,4.8783,4.878,4.8775,4.8773,4.8776,4.8768,4.8768,4.8769,4.8769,4.877,4.8767,4.8768,4.8768,4.8768,0,4.8827,4.8824,4.8822,4.8816,4.8814,4.8813,4.8807,4.8805,4.8799,4.8796,4.8792,4.8789,4.8784,4.8783,4.8776,4.8777,4.8774,4.877,4.877,4.8769,4.8768,4.8767,4.8766,4.8766,4.8768,4.8768,4.8768,0,4.8832,4.8827,4.8824,4.8822,4.8816,4.8814,4.8811,4.8805,4.8802,4.8797,4.8795,4.8789,4.8786,4.8781,4.8775,4.8775,4.8767,4.8766,4.8764,4.8764,4.8762,4.8762,4.8761,4.8761,4.8761,4.8761,4.8761,0,4.8835,4.8833,4.8826,4.8824,4.8821,4.8817,4.8813,4.881,4.8804,4.8801,4.8796,4.8792,4.8785,4.878,4.8775,4.8769,4.8767,4.8764,4.8762,4.8764,4.8764,4.8761,4.8761,4.8761,4.8761,4.8761,4.8761,0,4.8839,4.8835,4.8831,4.8825,4.8823,4.8821,4.8815,4.8812,4.8808,4.8803,4.8801,4.8794,4.8787,4.8781,4.8772,4.8769,4.8762,4.8761,4.8764,4.8763,4.8761,4.8761,4.8756,4.8755,4.8757,4.8757,4.8757,0,4.8841,4.884,4.8833,4.883,4.8827,4.8823,4.882,4.8814,4.8811,4.8803,4.8801,4.8794,4.8788,4.8778,4.8771,4.8763,4.8761,4.876,4.876,4.8761,4.876,4.876,4.8759,4.876,4.876,4.876,4.876,0,4.8844,4.8842,4.8838,4.8833,4.8829,4.8824,4.8819,4.8817,4.881,4.8806,4.88,4.8795,4.8786,4.8778,4.877,4.8765,4.8761,4.876,4.8759,4.876,4.8762,4.876,4.8764,4.876,4.876,4.876,4.876,4.876,4.8847,4.8845,4.8839,4.8834,4.883,4.8825,4.8822,4.8816,4.8811,4.8804,4.88,4.8793,4.8785,4.8773,4.8768,4.8761,4.8761,4.8759,4.8759,4.8758,4.8758,4.8763,4.876,4.876,4.876,4.876,4.876,0,4.8849,4.8845,4.884,4.8834,4.8829,4.8826,4.882,4.8816,4.881,4.8804,4.8798,4.8789,4.8782,4.8774,4.8765,4.8761,4.8759,4.8759,4.8759,4.8757,4.876,4.8761,4.8761,4.8761,4.8761,4.8761,4.8761,4.8761,4.8849,4.8845,4.8841,4.8834,4.8829,4.8823,4.882,4.8814,4.8809,4.88,4.8794,4.8788,4.8781,4.8771,4.8763,4.8761,4.8757,4.8758,4.8755,4.8757,4.8757,4.8757,4.8759,4.8757,4.8757,4.8752,4.8752,4.8752]}]]